Location: Liscomb Game Sanctuary
(45.1633°N, 62.5575°W)
Time: 23:12:29
(UTC-03:00)

Amateur Radio Satellites - All Passes

Search period start: 20 October 2014 22:42
Search period end: 21 October 2014 22:42
Location: Liscomb Game Sanctuary, 45.1633°N, 62.5575°W

Satellite Date Start Highest point End Downlink Frequencies (MHz)
Time Altitude Azimuth
ZACube-1 20 Oct 22:49:27 22:54:03 70° 258° (WSW) 22:58:37 437.345 MHz
RS-15 20 Oct 22:53:40 23:03:55 48° 111° (ESE) 23:14:05 29.354 - 29.394 USB, Beacon 29.352 USB
UKube-1 20 Oct 23:05:27 23:08:30 18° 267° (W) 23:11:33 145.840 MHz, 145.915 MHz
AO-40 20 Oct 23:28:36 00:37:35 15° 232° (SW) 02:19:27 Beacon 2401.320
SO-50 20 Oct 23:34:30 23:39:13 55° 240° (WSW) 23:43:59 436.795 FM
FUNcube-1 20 Oct 23:36:25 23:40:12 25° 266° (W) 23:43:57 145.950 - 145.970 MHz USB
UOSAT-12 20 Oct 23:43:01 23:47:07 28° 41° (NE) 23:51:11 437.025 FM, 437.400 FM
KITSAT 1 21 Oct 00:21:29 00:27:30 24° 256° (WSW) 00:33:30 435.175 FM
RS-15 21 Oct 01:05:17 01:16:03 59° 316° (NW) 01:26:53 29.354 - 29.394 USB, Beacon 29.352 USB
MaSat-1 21 Oct 01:10:51 01:15:03 58° 115° (ESE) 01:18:51 437.345 MHz
UOSAT-12 21 Oct 01:22:56 01:27:30 48° 241° (WSW) 01:31:58 437.025 FM, 437.400 FM
JAS-1B 21 Oct 01:35:53 01:40:17 18° 92° (E) 01:45:06 435.800 - 435.900 CW/SSB
Oscar 16 21 Oct 01:47:15 01:51:07 21° 92° (E) 01:54:57 437.025 USB, Beacon 2401.1428
Uribyol 2 21 Oct 02:00:26 02:02:15 12° 87° (E) 02:04:04 436.500 FM
ITAMSAT 1 21 Oct 02:05:03 02:07:09 12° 87° (E) 02:09:15 435.822 SSB
AO-Echo 21 Oct 02:17:50 02:21:57 23° 92° (E) 02:26:04 ?
Oscar 19 21 Oct 02:40:40 02:45:46 62° 101° (ESE) 02:50:49 437.125 CW, 437.150 USB
AO-27 21 Oct 02:47:32 02:52:10 31° 96° (E) 02:56:46 436.795 MHz FM
MaSat-1 21 Oct 02:48:24 02:51:04 17° 310° (NW) 02:53:35 437.345 MHz
RS-15 21 Oct 03:22:13 03:31:20 29° 347° (NNW) 03:40:37 29.354 - 29.394 USB, Beacon 29.352 USB
JAS-1B 21 Oct 03:25:05 03:31:25 81° 287° (WNW) 03:38:55 435.800 - 435.900 CW/SSB
Oscar 16 21 Oct 03:25:48 03:30:47 52° 290° (WNW) 03:35:44 437.025 USB, Beacon 2401.1428
Gurwin Techsat 1B 21 Oct 03:36:14 03:41:21 45° 99° (E) 03:46:25 435.225 FM
Uribyol 2 21 Oct 03:37:13 03:42:29 88° 106° (ESE) 03:47:41 436.500 FM
ITAMSAT 1 21 Oct 03:42:06 03:47:22 89° 285° (WNW) 03:52:35 435.822 SSB
PCSat 21 Oct 03:48:25 03:49:19 10° 101° (E) 03:50:14 145.825 MHz
TMSAT-1 21 Oct 03:50:21 03:55:28 45° 99° (E) 04:00:31 436.925 FM
AO-Echo 21 Oct 03:55:51 04:00:59 53° 289° (WNW) 04:06:08 ?
Oscar 19 21 Oct 04:21:03 04:24:38 20° 300° (WNW) 04:28:12 437.125 CW, 437.150 USB
AO-27 21 Oct 04:26:55 04:31:43 37° 293° (WNW) 04:36:29 436.795 MHz FM
OPAL 21 Oct 04:32:26 04:37:07 36° 64° (ENE) 04:41:46 ?
AO-7 21 Oct 04:37:37 04:44:52 32° 95° (E) 04:52:05 29.400 - 29.500 MHz
Sapphire 21 Oct 05:03:39 05:08:46 45° 114° (ESE) 05:13:55 437.095 MHz 1200 baud AX-25 AFSK
Gurwin Techsat 1B 21 Oct 05:16:40 05:21:05 27° 297° (WNW) 05:25:28 435.225 FM
JAS-1B 21 Oct 05:17:46 05:21:22 16° 304° (NW) 05:25:14 435.800 - 435.900 CW/SSB
Uribyol 2 21 Oct 05:18:24 05:21:13 15° 303° (WNW) 05:24:01 436.500 FM
ITAMSAT 1 21 Oct 05:23:24 05:26:06 14° 304° (WNW) 05:28:48 435.822 SSB
PCSat 21 Oct 05:26:22 05:31:45 74° 119° (ESE) 05:37:11 145.825 MHz
TMSAT-1 21 Oct 05:30:45 05:35:09 27° 297° (WNW) 05:39:32 436.925 FM
Uosat F 21 Oct 05:36:51 05:41:54 66° 102° (ESE) 05:46:54 435.120 FM
RS-15 21 Oct 05:38:25 05:48:04 33° 22° (NNE) 05:57:57 29.354 - 29.394 USB, Beacon 29.352 USB
STRAND 1 21 Oct 06:10:13 06:14:36 30° 65° (ENE) 06:19:01 ?
OPAL 21 Oct 06:11:24 06:16:00 32° 262° (W) 06:20:35 ?
JAS-2 21 Oct 06:17:41 06:25:06 51° 98° (E) 06:32:41 435.800 - 435.900 CW/SSB, 435.910 FM
Hamsat 21 Oct 06:23:27 06:27:05 28° 95° (E) 06:30:42 145.90 MHz
AO-7 21 Oct 06:29:57 06:38:07 63° 295° (WNW) 06:46:17 29.400 - 29.500 MHz
Sapphire 21 Oct 06:47:28 06:52:20 33° 314° (NW) 06:57:15 437.095 MHz 1200 baud AX-25 AFSK
PCSat 21 Oct 07:11:28 07:15:44 23° 319° (NW) 07:20:02 145.825 MHz
Uosat F 21 Oct 07:16:46 07:20:10 19° 300° (WNW) 07:23:34 435.120 FM
SO-67 21 Oct 07:25:07 07:27:17 16° 92° (E) 07:29:27 435.3500 MHz FM
STRAND 1 21 Oct 07:48:53 07:53:39 39° 262° (W) 07:58:29 ?
RS-15 21 Oct 07:51:26 08:02:36 75° 51° (NE) 08:14:12 29.354 - 29.394 USB, Beacon 29.352 USB
Hamsat 21 Oct 07:59:25 08:02:59 28° 292° (WNW) 08:06:33 145.90 MHz
JAS-2 21 Oct 08:02:59 08:09:56 41° 296° (WNW) 08:17:06 435.800 - 435.900 CW/SSB, 435.910 FM
AO-7 21 Oct 08:24:28 08:29:21 17° 317° (NW) 08:34:14 29.400 - 29.500 MHz
SO-67 21 Oct 08:57:16 09:00:23 32° 289° (WNW) 09:03:30 435.3500 MHz FM
Saudisat 1A 21 Oct 09:06:01 09:10:18 56° 121° (ESE) 09:14:37 436.775 MHz
MaSat-1 21 Oct 09:21:44 09:22:49 12° 46° (NE) 09:23:51 437.345 MHz
HO-68 21 Oct 09:46:47 09:53:40 45° 99° (E) 10:00:29 435.675 MHz FM
Oscar 11 21 Oct 10:00:04 10:03:03 18° 92° (E) 10:06:01 145.825 FM, Beacon 2401.500 USB
RS-15 21 Oct 10:04:32 10:14:06 35° 254° (WSW) 10:24:02 29.354 - 29.394 USB, Beacon 29.352 USB
ZACube-1 21 Oct 10:37:43 10:40:51 19° 92° (E) 10:43:55 437.345 MHz
Saudisat 1A 21 Oct 10:46:38 10:50:11 23° 320° (NW) 10:53:45 436.775 MHz
UKube-1 21 Oct 10:49:53 10:54:15 64° 102° (ESE) 10:58:35 145.840 MHz, 145.915 MHz
MaSat-1 21 Oct 10:56:19 10:58:47 30° 249° (WSW) 11:01:02 437.345 MHz
FUNcube-1 21 Oct 11:22:40 11:26:57 57° 100° (E) 11:31:05 145.950 - 145.970 MHz USB
HO-68 21 Oct 11:34:41 11:41:17 40° 298° (WNW) 11:47:51 435.675 MHz FM
Oscar 11 21 Oct 11:35:21 11:39:28 45° 289° (WNW) 11:43:33 145.825 FM, Beacon 2401.500 USB
Sapphire 21 Oct 12:07:09 12:10:06 15° 31° (NNE) 12:13:03 437.095 MHz 1200 baud AX-25 AFSK
ZACube-1 21 Oct 12:13:23 12:17:27 41° 290° (WNW) 12:21:25 437.345 MHz
Oscar 19 21 Oct 12:22:50 12:26:01 17° 59° (ENE) 12:29:11 437.125 CW, 437.150 USB
JAS-1B 21 Oct 12:26:02 12:29:40 17° 57° (ENE) 12:33:13 435.800 - 435.900 CW/SSB
UKube-1 21 Oct 12:27:27 12:29:56 15° 300° (WNW) 12:32:26 145.840 MHz, 145.915 MHz
PCSat 21 Oct 12:29:42 12:33:39 20° 38° (NE) 12:37:34 145.825 MHz
KITSAT 1 21 Oct 12:55:23 13:02:52 44° 111° (ESE) 13:10:22 435.175 FM
FUNcube-1 21 Oct 13:00:17 13:02:51 16° 299° (WNW) 13:05:23 145.950 - 145.970 MHz USB
Oscar 16 21 Oct 13:05:56 13:10:41 38° 67° (ENE) 13:15:26 437.025 USB, Beacon 2401.1428
Uribyol 2 21 Oct 13:19:12 13:23:19 24° 62° (ENE) 13:27:26 436.500 FM
Gurwin Techsat 1B 21 Oct 13:22:53 13:25:30 14° 56° (NE) 13:28:06 435.225 FM
ITAMSAT 1 21 Oct 13:24:08 13:28:18 25° 62° (ENE) 13:32:30 435.822 SSB
AO-Echo 21 Oct 13:32:48 13:37:08 33° 66° (ENE) 13:41:37 ?
TMSAT-1 21 Oct 13:36:45 13:39:19 14° 56° (NE) 13:41:53 436.925 FM
Sapphire 21 Oct 13:49:22 13:54:44 57° 54° (NE) 14:00:05 437.095 MHz 1200 baud AX-25 AFSK
AO-7 21 Oct 13:51:38 13:55:36 15° 40° (NE) 13:59:34 29.400 - 29.500 MHz
SO-50 21 Oct 13:51:39 13:55:34 30° 115° (ESE) 13:59:35 436.795 FM
Oscar 19 21 Oct 13:59:36 14:04:45 76° 257° (WSW) 14:09:56 437.125 CW, 437.150 USB
AO-27 21 Oct 14:07:32 14:12:38 58° 71° (ENE) 14:17:46 436.795 MHz FM
PCSat 21 Oct 14:12:22 14:17:50 89° 59° (ENE) 14:23:15 145.825 MHz
JAS-1B 21 Oct 14:13:41 14:19:47 77° 256° (WSW) 14:25:29 435.800 - 435.900 CW/SSB
Oscar 16 21 Oct 14:45:37 14:50:06 29° 265° (W) 14:54:36 437.025 USB, Beacon 2401.1428
KITSAT 1 21 Oct 14:50:20 14:58:10 52° 313° (NW) 15:06:03 435.175 FM
Uribyol 2 21 Oct 14:57:24 15:02:28 51° 260° (W) 15:07:34 436.500 FM
Gurwin Techsat 1B 21 Oct 14:59:21 15:04:39 85° 75° (ENE) 15:10:01 435.225 FM
ITAMSAT 1 21 Oct 15:02:29 15:07:30 49° 260° (W) 15:12:35 435.822 SSB
ISS 21 Oct 15:04:24 15:07:42 63° 146° (SSE) 15:11:01 145.800 FM
AO-Echo 21 Oct 15:11:36 15:15:54 31° 265° (W) 15:20:21 ?
TMSAT-1 21 Oct 15:13:07 15:18:25 84° 75° (ENE) 15:23:46 436.925 FM
Uosat F 21 Oct 15:15:52 15:18:58 17° 59° (ENE) 15:22:04 435.120 FM
SO-50 21 Oct 15:31:45 15:36:00 39° 314° (NW) 15:40:23 436.795 FM
Sapphire 21 Oct 15:33:32 15:37:46 24° 252° (WSW) 15:41:59 437.095 MHz 1200 baud AX-25 AFSK
UOSAT-12 21 Oct 15:36:02 15:40:07 31° 115° (ESE) 15:44:17 437.025 FM, 437.400 FM
AO-7 21 Oct 15:38:37 15:46:32 53° 62° (ENE) 15:54:29 29.400 - 29.500 MHz
AO-27 21 Oct 15:48:47 15:52:31 20° 269° (W) 15:56:18 436.795 MHz FM
Saudisat 1A 21 Oct 15:52:08 15:54:55 16° 33° (NNE) 15:57:43 436.775 MHz
PCSat 21 Oct 15:57:47 16:00:27 14° 257° (WSW) 16:03:06 145.825 MHz
JAS-2 21 Oct 16:33:32 16:38:17 25° 58° (ENE) 16:43:29 435.800 - 435.900 CW/SSB, 435.910 FM
ISS 21 Oct 16:41:30 16:44:35 33° 345° (NNW) 16:47:40 145.800 FM
Gurwin Techsat 1B 21 Oct 16:42:49 16:45:19 13° 272° (W) 16:47:49 435.225 FM
Oscar 10/S400 21 Oct 16:47:03 17:05:08 48° 165° (SSE) 18:01:56 145.825 - 145.975 CW/USB, Beacon 145.810 USB
KITSAT 1 21 Oct 16:49:55 16:55:42 21° 339° (NNW) 17:01:29 435.175 FM
Uosat F 21 Oct 16:52:09 16:57:10 74° 257° (WSW) 17:02:13 435.120 FM
TMSAT-1 21 Oct 16:56:29 16:59:01 13° 272° (W) 17:01:34 436.925 FM
UOSAT-12 21 Oct 17:15:48 17:20:11 39° 314° (NW) 17:24:38 437.025 FM, 437.400 FM
SO-50 21 Oct 17:16:37 17:17:54 11° 337° (NNW) 17:19:13 436.795 FM
Hamsat 21 Oct 17:18:52 17:22:24 27° 68° (ENE) 17:25:56 145.90 MHz
Saudisat 1A 21 Oct 17:30:45 17:35:12 82° 54° (NE) 17:39:37 436.775 MHz
AO-7 21 Oct 17:31:57 17:39:32 39° 262° (W) 17:47:11 29.400 - 29.500 MHz
JAS-2 21 Oct 18:17:01 18:22:45 62° 260° (W) 18:29:18 435.800 - 435.900 CW/SSB, 435.910 FM
OPAL 21 Oct 18:18:34 18:23:28 54° 103° (ESE) 18:28:18 ?
ISS 21 Oct 18:18:59 18:21:54 27° 5° (N) 18:24:48 145.800 FM
KITSAT 1 21 Oct 18:49:42 18:54:44 17° 10° (N) 18:59:46 435.175 FM
Hamsat 21 Oct 18:54:35 18:58:17 29° 264° (W) 19:01:59 145.90 MHz
UOSAT-12 21 Oct 19:00:13 19:01:40 11° 337° (NNW) 19:03:06 437.025 FM, 437.400 FM
Saudisat 1A 21 Oct 19:12:17 19:14:07 12° 251° (WSW) 19:15:57 436.775 MHz
SO-67 21 Oct 19:31:12 19:34:37 77° 258° (WSW) 19:38:05 435.3500 MHz FM
ISS 21 Oct 19:55:43 19:59:02 60° 25° (NNE) 20:02:21 145.800 FM
STRAND 1 21 Oct 19:56:55 20:02:03 61° 101° (ESE) 20:07:08 ?
OPAL 21 Oct 19:58:15 20:01:59 22° 301° (WNW) 20:05:42 ?
HO-68 21 Oct 20:17:29 20:24:06 43° 63° (ENE) 20:30:46 435.675 MHz FM
SO-50 21 Oct 20:41:16 20:43:40 14° 28° (NNE) 20:46:06 436.795 FM
KITSAT 1 21 Oct 20:45:43 20:53:00 35° 38° (NE) 21:00:14 435.175 FM
Oscar 11 21 Oct 20:57:17 21:00:25 20° 64° (ENE) 21:03:33 145.825 FM, Beacon 2401.500 USB
ISS 21 Oct 21:32:49 21:35:31 23° 223° (SW) 21:38:13 145.800 FM
ZACube-1 21 Oct 21:35:56 21:39:32 23° 65° (ENE) 21:43:06 437.345 MHz
STRAND 1 21 Oct 21:37:05 21:40:47 20° 300° (WNW) 21:44:28 ?
UKube-1 21 Oct 21:47:04 21:51:24 72° 74° (ENE) 21:55:46 145.840 MHz, 145.915 MHz
HO-68 21 Oct 22:05:05 22:11:48 42° 262° (W) 22:18:34 435.675 MHz FM
RS-15 21 Oct 22:18:42 22:28:15 36° 107° (ESE) 22:37:44 29.354 - 29.394 USB, Beacon 29.352 USB
FUNcube-1 21 Oct 22:20:25 22:24:57 61° 73° (ENE) 22:29:27 145.950 - 145.970 MHz USB
SO-50 21 Oct 22:20:36 22:25:19 52° 49° (NE) 22:30:05 436.795 FM
UOSAT-12 21 Oct 22:24:21 22:26:35 13° 27° (NNE) 22:28:49 437.025 FM, 437.400 FM
Oscar 11 21 Oct 22:32:09 22:36:18 44° 261° (W) 22:40:28 145.825 FM, Beacon 2401.500 USB
